| time (UTC) | temp F | wind direction | speed knots | gust knots | rain 1hr in | rain 24hr in | rain mn in | humidity % | barometer mb |
| 20260831110353 | 79 | 209 | 3.5 | 5.2 | 0.00 | 0.00 | 0.00 | 89 | 1017.4 |
| 20260831105851 | 79 | 215 | 3.5 | 5.2 | 0.00 | 0.00 | 0.00 | 88 | 1017.5 |
| 20260831105347 | 79 | 184 | 2.6 | 3.5 | 0.00 | 0.00 | 0.00 | 89 | 1017.5 |
| 20260831104842 | 79 | 175 | 2.6 | 3.5 | 0.00 | 0.00 | 0.00 | 89 | 1017.3 |
| 20260831104338 | 79 | 192 | 4.3 | 6.1 | 0.00 | 0.00 | 0.00 | 88 | 1017.5 |
| 20260831103833 | 79 | 199 | 5.2 | 6.1 | 0.00 | 0.00 | 0.00 | 88 | 1017.4 |
| 20260831103328 | 79 | 229 | 1.7 | 2.6 | 0.00 | 0.00 | 0.00 | 89 | 1017.6 |
| 20260831102823 | 79 | 189 | 4.3 | 5.2 | 0.00 | 0.00 | 0.00 | 89 | 1017.5 |
| 20260831102318 | 79 | 201 | 3.5 | 3.5 | 0.00 | 0.00 | 0.00 | 88 | 1017.5 |
| 20260831101814 | 79 | 206 | 1.7 | 1.7 | 0.00 | 0.00 | 0.00 | 88 | 1017.6 |
| 20260831101309 | 79 | 197 | 2.6 | 3.5 | 0.00 | 0.00 | 0.00 | 88 | 1017.5 |
| 20260831100805 | 79 | 195 | 3.5 | 5.2 | 0.00 | 0.00 | 0.00 | 88 | 1017.7 |
| 20260831100301 | 79 | 195 | 2.6 | 2.6 | 0.00 | 0.00 | 0.00 | 88 | 1017.8 |
| 20260831095800 | 79 | 182 | 3.5 | 3.5 | 0.00 | 0.00 | 0.00 | 88 | 1017.6 |
| 20260831095254 | 79 | 222 | 4.3 | 6.1 | 0.00 | 0.00 | 0.00 | 89 | 1017.6 |
| 20260831094749 | 79 | 212 | 0.9 | 0.9 | 0.00 | 0.00 | 0.00 | 89 | 1017.5 |
| 20260831094244 | 79 | 163 | 2.6 | 2.6 | 0.00 | 0.00 | 0.00 | 89 | 1017.6 |
| 20260831093740 | 79 | 205 | 1.7 | 2.6 | 0.00 | 0.00 | 0.00 | 89 | 1017.4 |
| 20260831093235 | 79 | 165 | 1.7 | 2.6 | 0.00 | 0.00 | 0.00 | 89 | 1017.6 |
| 20260831092732 | 79 | 170 | 2.6 | 3.5 | 0.00 | 0.00 | 0.00 | 89 | 1017.4 |
| 20260831092227 | 79 | 206 | 1.7 | 2.6 | 0.00 | 0.00 | 0.00 | 88 | 1017.5 |
| 20260831091726 | 79 | 189 | 4.3 | 6.1 | 0.00 | 0.00 | 0.00 | 88 | 1017.5 |
| 20260831091222 | 79 | 204 | 4.3 | 6.1 | 0.00 | 0.00 | 0.00 | 88 | 1017.6 |
| 20260831090717 | 79 | 192 | 3.5 | 3.5 | 0.00 | 0.00 | 0.00 | 87 | 1017.2 |
| 20260831090214 | 79 | 176 | 3.5 | 3.5 | 0.00 | 0.00 | 0.00 | 87 | 1017.2 |
| 20260831085709 | 79 | 187 | 7.8 | 8.7 | 0.00 | 0.00 | 0.00 | 87 | 1017.4 |
| 20260831085204 | 79 | 204 | 3.5 | 3.5 | 0.00 | 0.00 | 0.00 | 88 | 1017.4 |
| 20260831084659 | 79 | 185 | 1.7 | 2.6 | 0.00 | 0.00 | 0.00 | 88 | 1017.5 |
| 20260831084155 | 79 | 176 | 2.6 | 2.6 | 0.00 | 0.00 | 0.00 | 88 | 1017.3 |
| 20260831083651 | 79 | 96 | 1.7 | 2.6 | 0.00 | 0.00 | 0.00 | 88 | 1017.5 |
| 20260831083146 | 79 | 188 | 4.3 | 7.0 | 0.00 | 0.00 | 0.00 | 88 | 1017.4 |
| 20260831082644 | 79 | 180 | 6.1 | 7.8 | 0.00 | 0.00 | 0.00 | 87 | 1017.4 |
| 20260831082140 | 80 | 172 | 7.8 | 9.6 | 0.00 | 0.00 | 0.00 | 87 | 1017.4 |
| 20260831081636 | 80 | 144 | 4.3 | 5.2 | 0.00 | 0.00 | 0.00 | 87 | 1017.5 |
| 20260831081132 | 80 | 181 | 2.6 | 5.2 | 0.00 | 0.00 | 0.00 | 86 | 1017.5 |
| 20260831080627 | 80 | 190 | 7.8 | 8.7 | 0.00 | 0.00 | 0.00 | 86 | 1017.5 |
| 20260831080121 | 80 | 122 | 5.2 | 5.2 | 0.00 | 0.00 | 0.00 | 86 | 1017.6 |
| 20260831075618 | 80 | 132 | 4.3 | 6.1 | 0.00 | 0.00 | 0.00 | 85 | 1017.5 |
| 20260831075113 | 80 | 183 | 3.5 | 8.7 | 0.00 | 0.00 | 0.00 | 84 | 1017.4 |
| 20260831074612 | 80 | 131 | 2.6 | 6.1 | 0.00 | 0.00 | 0.00 | 84 | 1017.2 |
| 20260831074107 | 80 | 156 | 7.8 | 11.3 | 0.00 | 0.00 | 0.00 | 83 | 1017.5 |
| 20260831073602 | 81 | 177 | 10.4 | 13.0 | 0.00 | 0.00 | 0.00 | 82 | 1017.6 |
| 20260831073101 | 81 | 182 | 10.4 | 13.0 | 0.00 | 0.00 | 0.00 | 82 | 1017.5 |
| 20260831072556 | 81 | 165 | 1.7 | 2.6 | 0.00 | 0.00 | 0.00 | 79 | 1017.5 |
| 20260831072054 | 81 | 168 | 1.7 | 2.6 | 0.00 | 0.00 | 0.00 | 78 | 1017.5 |
| 20260831071551 | 81 | 172 | 1.7 | 1.7 | 0.00 | 0.00 | 0.00 | 78 | 1017.7 |
| 20260831071047 | 81 | 139 | 1.7 | 2.6 | 0.00 | 0.00 | 0.00 | 78 | 1017.5 |
| 20260831070546 | 82 | 142 | 4.3 | 6.1 | 0.00 | 0.00 | 0.00 | 78 | 1017.5 |
| 20260831070041 | 82 | 124 | 2.6 | 2.6 | 0.00 | 0.00 | 0.00 | 78 | 1017.5 |
| 20260831065538 | 82 | 166 | 6.1 | 7.8 | 0.00 | 0.00 | 0.00 | 77 | 1017.5 |
| 20260831065033 | 82 | 155 | 1.7 | 1.7 | 0.00 | 0.00 | 0.00 | 77 | 1017.7 |
| 20260831064528 | 82 | 161 | 1.7 | 2.6 | 0.00 | 0.00 | 0.00 | 76 | 1017.6 |
| 20260831064024 | 82 | 118 | 2.6 | 2.6 | 0.00 | 0.00 | 0.00 | 76 | 1017.7 |
| 20260831063519 | 82 | 167 | 7.0 | 7.8 | 0.00 | 0.00 | 0.00 | 76 | 1017.7 |
| 20260831063014 | 82 | 185 | 3.5 | 3.5 | 0.00 | 0.00 | 0.00 | 75 | 1017.6 |
| 20260831062509 | 83 | 140 | 0.9 | 1.7 | 0.00 | 0.00 | 0.00 | 75 | 1017.5 |
| 20260831062008 | 83 | 132 | 5.2 | 7.0 | 0.00 | 0.00 | 0.00 | 74 | 1017.5 |
| 20260831061506 | 83 | 146 | 3.5 | 7.0 | 0.00 | 0.00 | 0.00 | 74 | 1017.7 |
| 20260831061002 | 83 | 135 | 3.5 | 5.2 | 0.00 | 0.00 | 0.00 | 73 | 1017.5 |
| 20260831060456 | 83 | 154 | 3.5 | 5.2 | 0.00 | 0.00 | 0.00 | 73 | 1017.4 |
| 20260831055951 | 83 | 193 | 4.3 | 6.1 | 0.00 | 0.00 | 0.00 | 72 | 1017.6 |
| 20260831055446 | 84 | 149 | 3.5 | 5.2 | 0.00 | 0.00 | 0.00 | 71 | 1017.4 |
| 20260831054941 | 84 | 159 | 3.5 | 6.1 | 0.00 | 0.00 | 0.00 | 71 | 1017.4 |
| 20260831054436 | 84 | 208 | 3.5 | 5.2 | 0.00 | 0.00 | 0.00 | 71 | 1017.4 |
| 20260831053936 | 84 | 116 | 3.5 | 3.5 | 0.00 | 0.00 | 0.00 | 70 | 1017.4 |
| 20260831053433 | 84 | 166 | 5.2 | 7.0 | 0.00 | 0.00 | 0.00 | 69 | 1017.3 |
| 20260831052928 | 84 | 205 | 5.2 | 6.1 | 0.00 | 0.00 | 0.00 | 69 | 1017.3 |
| 20260831052428 | 84 | 187 | 5.2 | 6.1 | 0.00 | 0.00 | 0.00 | 69 | 1017.3 |
| 20260831051926 | 85 | 168 | 5.2 | 7.0 | 0.00 | 0.00 | 0.00 | 68 | 1017.2 |
| 20260831051425 | 85 | 118 | 6.1 | 7.8 | 0.00 | 0.00 | 0.00 | 68 | 1017.2 |
| 20260831050920 | 85 | 185 | 5.2 | 7.8 | 0.00 | 0.00 | 0.00 | 67 | 1017.4 |
| 20260831050420 | 85 | 171 | 2.6 | 3.5 | 0.00 | 0.00 | 0.00 | 66 | 1017.1 |
| 20260831045918 | 85 | 125 | 7.8 | 9.6 | 0.00 | 0.00 | 0.00 | 66 | 1017.0 |
| 20260831045418 | 86 | 84 | 1.7 | 2.6 | 0.00 | 0.00 | 0.00 | 65 | 1017.2 |
| 20260831044913 | 86 | 153 | 7.0 | 7.8 | 0.00 | 0.00 | 0.00 | 64 | 1017.1 |
| 20260831044408 | 86 | 184 | 5.2 | 7.0 | 0.00 | 0.00 | 0.00 | 64 | 1016.9 |
| 20260831043904 | 86 | 168 | 7.8 | 8.7 | 0.00 | 0.00 | 0.00 | 63 | 1016.9 |
| 20260831043403 | 86 | 167 | 4.3 | 5.2 | 0.00 | 0.00 | 0.00 | 63 | 1016.9 |
| 20260831042859 | 86 | 101 | 4.3 | 6.1 | 0.00 | 0.00 | 0.00 | 63 | 1016.9 |
| 20260831042358 | 86 | 141 | 7.0 | 7.8 | 0.00 | 0.00 | 0.00 | 62 | 1017.1 |
| 20260831041853 | 86 | 166 | 4.3 | 5.2 | 0.00 | 0.00 | 0.00 | 62 | 1016.8 |
| 20260831041352 | 87 | 180 | 5.2 | 6.1 | 0.00 | 0.00 | 0.00 | 62 | 1017.0 |
| 20260831040848 | 87 | 135 | 6.1 | 7.8 | 0.00 | 0.00 | 0.00 | 62 | 1016.9 |
| 20260831040342 | 87 | 173 | 3.5 | 5.2 | 0.00 | 0.00 | 0.00 | 62 | 1017.1 |
| 20260831035840 | 87 | 105 | 6.1 | 8.7 | 0.00 | 0.00 | 0.00 | 62 | 1016.9 |
| 20260831035339 | 87 | 173 | 4.3 | 6.1 | 0.00 | 0.00 | 0.00 | 62 | 1017.0 |
| 20260831034834 | 87 | 172 | 6.1 | 7.0 | 0.00 | 0.00 | 0.00 | 61 | 1016.9 |
| 20260831034329 | 87 | 141 | 3.5 | 5.2 | 0.00 | 0.00 | 0.00 | 61 | 1016.7 |
| 20260831033824 | 87 | 156 | 5.2 | 7.8 | 0.00 | 0.00 | 0.00 | 61 | 1016.7 |
| 20260831033319 | 87 | 171 | 9.6 | 13.0 | 0.00 | 0.00 | 0.00 | 60 | 1016.7 |
| 20260831032814 | 88 | 173 | 3.5 | 3.5 | 0.00 | 0.00 | 0.00 | 61 | 1016.8 |
| 20260831032309 | 88 | 128 | 7.8 | 8.7 | 0.00 | 0.00 | 0.00 | 60 | 1016.7 |
| 20260831031804 | 88 | 93 | 3.5 | 6.1 | 0.00 | 0.00 | 0.00 | 60 | 1016.7 |
| 20260831031303 | 88 | 96 | 6.1 | 11.3 | 0.00 | 0.00 | 0.00 | 60 | 1016.4 |
| 20260831030759 | 88 | 235 | 9.6 | 13.9 | 0.00 | 0.00 | 0.00 | 60 | 1016.5 |
| 20260831030256 | 88 | 187 | 2.6 | 3.5 | 0.00 | 0.00 | 0.00 | 60 | 1016.4 |
| 20260831025756 | 88 | 157 | 7.0 | 8.7 | 0.00 | 0.00 | 0.00 | 60 | 1016.2 |
| 20260831025250 | 88 | 108 | 3.5 | 5.2 | 0.00 | 0.00 | 0.00 | 61 | 1016.2 |
| 20260831024746 | 88 | 125 | 5.2 | 6.1 | 0.00 | 0.00 | 0.00 | 61 | 1016.2 |
| 20260831024245 | 88 | 144 | 7.0 | 8.7 | 0.00 | 0.00 | 0.00 | 60 | 1016.0 |
| 20260831023744 | 89 | 82 | 8.7 | 9.6 | 0.00 | 0.00 | 0.00 | 60 | 1016.2 |
| 20260831023243 | 89 | 88 | 4.3 | 6.1 | 0.00 | 0.00 | 0.00 | 59 | 1015.9 |
| 20260831022738 | 89 | 150 | 3.5 | 3.5 | 0.00 | 0.00 | 0.00 | 59 | 1015.9 |
| 20260831022237 | 89 | 127 | 6.1 | 7.8 | 0.00 | 0.00 | 0.00 | 58 | 1016.0 |
| 20260831021733 | 89 | 132 | 7.0 | 8.7 | 0.00 | 0.00 | 0.00 | 57 | 1015.8 |
| 20260831021232 | 90 | 134 | 3.5 | 6.1 | 0.00 | 0.00 | 0.00 | 56 | 1015.7 |
| 20260831020729 | 90 | 88 | 5.2 | 7.0 | 0.00 | 0.00 | 0.00 | 55 | 1015.6 |
| 20260831020228 | 90 | 94 | 9.6 | 13.0 | 0.00 | 0.00 | 0.00 | 54 | 1015.6 |
| 20260831015723 | 91 | 88 | 7.0 | 8.7 | 0.00 | 0.00 | 0.00 | 52 | 1015.6 |
| 20260831015219 | 91 | 129 | 1.7 | 2.6 | 0.00 | 0.00 | 0.00 | 48 | 1015.5 |
| 20260831014714 | 91 | 98 | 2.6 | 3.5 | 0.00 | 0.00 | 0.00 | 47 | 1014.9 |
| 20260831014209 | 92 | 77 | 3.5 | 6.1 | 0.00 | 0.00 | 0.00 | 46 | 1015.0 |
| 20260831013704 | 92 | 104 | 5.2 | 6.1 | 0.00 | 0.00 | 0.00 | 46 | 1015.0 |
| 20260831013158 | 92 | 100 | 1.7 | 2.6 | 0.00 | 0.00 | 0.00 | 46 | 1015.0 |
| 20260831012653 | 92 | 93 | 3.5 | 3.5 | 0.00 | 0.00 | 0.00 | 45 | 1014.8 |
| 20260831012149 | 92 | 87 | 0.0 | 1.7 | 0.00 | 0.00 | 0.00 | 45 | 1014.8 |
| 20260831011648 | 92 | 63 | 3.5 | 5.2 | 0.00 | 0.00 | 0.00 | 45 | 1014.9 |
| 20260831011144 | 93 | 128 | 3.5 | 5.2 | 0.00 | 0.00 | 0.00 | 45 | 1014.7 |
| 20260831010640 | 93 | 99 | 4.3 | 5.2 | 0.00 | 0.00 | 0.00 | 44 | 1014.7 |
| 20260831010135 | 93 | 136 | 1.7 | 1.7 | 0.00 | 0.00 | 0.00 | 44 | 1014.9 |
| 20260831005634 | 93 | 78 | 3.5 | 3.5 | 0.00 | 0.00 | 0.00 | 44 | 1014.7 |
| 20260831005130 | 93 | 97 | 3.5 | 5.2 | 0.00 | 0.00 | 0.00 | 44 | 1014.8 |
| 20260831004626 | 94 | 105 | 3.5 | 5.2 | 0.00 | 0.00 | 0.00 | 44 | 1014.8 |
| 20260831004121 | 94 | 106 | 1.7 | 2.6 | 0.00 | 0.00 | 0.00 | 44 | 1014.7 |
| 20260831003617 | 94 | 49 | 3.5 | 5.2 | 0.00 | 0.00 | 0.00 | 43 | 1014.7 |
| 20260831003113 | 94 | 118 | 1.7 | 3.5 | 0.00 | 0.00 | 0.00 | 43 | 1014.7 |
| 20260831002611 | 95 | 95 | 5.2 | 7.0 | 0.00 | 0.00 | 0.00 | 43 | 1014.4 |
| 20260831002107 | 95 | 132 | 3.5 | 6.1 | 0.00 | 0.00 | 0.00 | 42 | 1014.6 |
| 20260831001602 | 95 | 64 | 4.3 | 6.1 | 0.00 | 0.00 | 0.00 | 42 | 1014.5 |
| 20260831001058 | 95 | 90 | 2.6 | 3.5 | 0.00 | 0.00 | 0.00 | 42 | 1014.6 |
| 20260831000555 | 95 | 91 | 4.3 | 5.2 | 0.00 | 0.00 | 0.00 | 42 | 1014.6 |
| 20260831000054 | 95 | 77 | 0.0 | 0.9 | 0.00 | 0.00 | 0.00 | 41 | 1014.6 |
| 20260830235553 | 95 | 82 | 7.8 | 9.6 | 0.00 | 0.00 | 0.00 | 41 | 1014.6 |
| 20260830235048 | 95 | 39 | 2.6 | 3.5 | 0.00 | 0.00 | 0.00 | 42 | 1014.5 |
| 20260830234543 | 95 | 137 | 2.6 | 2.6 | 0.00 | 0.00 | 0.00 | 42 | 1014.7 |
| 20260830234038 | 95 | 76 | 3.5 | 5.2 | 0.00 | 0.00 | 0.00 | 42 | 1014.7 |
| 20260830233533 | 95 | 119 | 5.2 | 7.0 | 0.00 | 0.00 | 0.00 | 43 | 1014.7 |
| 20260830233029 | 95 | 59 | 2.6 | 3.5 | 0.00 | 0.00 | 0.00 | 43 | 1014.7 |
| 20260830232525 | 95 | 138 | 0.0 | 0.9 | 0.00 | 0.00 | 0.00 | 43 | 1014.5 |
| 20260830232021 | 96 | 196 | 0.9 | 0.9 | 0.00 | 0.00 | 0.00 | 42 | 1014.7 |
| 20260830231517 | 96 | 178 | 3.5 | 5.2 | 0.00 | 0.00 | 0.00 | 42 | 1014.9 |
| 20260830231016 | 96 | 135 | 5.2 | 6.1 | 0.00 | 0.00 | 0.00 | 42 | 1014.7 |
| 20260830230511 | 96 | 117 | 5.2 | 7.0 | 0.00 | 0.00 | 0.00 | 42 | 1014.8 |
| 20260830230011 | 96 | 102 | 4.3 | 5.2 | 0.00 | 0.00 | 0.00 | 42 | 1014.7 |
| 20260830225507 | 95 | 64 | 1.7 | 1.7 | 0.00 | 0.00 | 0.00 | 42 | 1014.7 |
| 20260830225006 | 95 | 99 | 5.2 | 7.0 | 0.00 | 0.00 | 0.00 | 44 | 1014.8 |
| 20260830224504 | 95 | 92 | 3.5 | 6.1 | 0.00 | 0.00 | 0.00 | 43 | 1014.8 |
| 20260830224001 | 96 | 140 | 9.6 | 11.3 | 0.00 | 0.00 | 0.00 | 43 | 1014.8 |
| 20260830223458 | 96 | 136 | 1.7 | 2.6 | 0.00 | 0.00 | 0.00 | 43 | 1014.9 |
| 20260830222957 | 96 | 74 | 1.7 | 1.7 | 0.00 | 0.00 | 0.00 | 42 | 1014.7 |
| 20260830222452 | 96 | 174 | 0.0 | 0.9 | 0.00 | 0.00 | 0.00 | 42 | 1014.6 |
| 20260830221948 | 97 | 201 | 2.6 | 3.5 | 0.00 | 0.00 | 0.00 | 40 | 1014.7 |
| 20260830221444 | 97 | 229 | 6.1 | 7.8 | 0.00 | 0.00 | 0.00 | 41 | 1014.8 |
| 20260830220940 | 96 | 99 | 1.7 | 2.6 | 0.00 | 0.00 | 0.00 | 43 | 1014.8 |
| 20260830220440 | 96 | 92 | 6.1 | 7.8 | 0.00 | 0.00 | 0.00 | 43 | 1014.9 |
| 20260830215937 | 98 | 138 | 5.2 | 7.8 | 0.00 | 0.00 | 0.00 | 42 | 1015.0 |
| 20260830215432 | 96 | 234 | 0.0 | 0.0 | 0.00 | 0.00 | 0.00 | 41 | 1015.0 |
| 20260830214926 | 96 | 115 | 3.5 | 5.2 | 0.00 | 0.00 | 0.00 | 41 | 1015.0 |
| 20260830214417 | 95 | 133 | 5.2 | 6.1 | 0.00 | 0.00 | 0.00 | 43 | 1015.1 |
| 20260830213916 | 95 | 149 | 4.3 | 6.1 | 0.00 | 0.00 | 0.00 | 44 | 1015.1 |
| 20260830213412 | 96 | 120 | 4.3 | 6.1 | 0.00 | 0.00 | 0.00 | 43 | 1015.3 |
| 20260830212907 | 96 | 154 | 5.2 | 7.0 | 0.00 | 0.00 | 0.00 | 42 | 1015.3 |
| 20260830212403 | 95 | 106 | 3.5 | 7.8 | 0.00 | 0.00 | 0.00 | 43 | 1015.4 |
| 20260830211903 | 96 | 133 | 8.7 | 11.3 | 0.00 | 0.00 | 0.00 | 43 | 1015.5 |
| 20260830211356 | 96 | 85 | 6.1 | 8.7 | 0.00 | 0.00 | 0.00 | 43 | 1015.5 |
| 20260830210852 | 96 | 105 | 5.2 | 7.0 | 0.00 | 0.00 | 0.00 | 45 | 1015.5 |
| 20260830210351 | 95 | 104 | 5.2 | 7.0 | 0.00 | 0.00 | 0.00 | 44 | 1015.6 |
| 20260830205849 | 95 | 61 | 5.2 | 8.7 | 0.00 | 0.00 | 0.00 | 44 | 1015.7 |
| 20260830205349 | 94 | 62 | 5.2 | 7.0 | 0.00 | 0.00 | 0.00 | 46 | 1016.1 |
| 20260830204844 | 95 | 73 | 3.5 | 5.2 | 0.00 | 0.00 | 0.00 | 44 | 1016.0 |
| 20260830204343 | 95 | 168 | 6.1 | 7.8 | 0.00 | 0.00 | 0.00 | 45 | 1016.3 |
| 20260830203838 | 95 | 171 | 3.5 | 5.2 | 0.00 | 0.00 | 0.00 | 45 | 1016.0 |
| 20260830203335 | 95 | 184 | 6.1 | 7.8 | 0.00 | 0.00 | 0.00 | 45 | 1016.1 |
| 20260830202834 | 95 | 128 | 7.0 | 8.7 | 0.00 | 0.00 | 0.00 | 45 | 1016.1 |
| 20260830202330 | 95 | 179 | 0.0 | 0.9 | 0.00 | 0.00 | 0.00 | 44 | 1016.2 |
| 20260830201825 | 95 | 168 | 0.9 | 2.6 | 0.00 | 0.00 | 0.00 | 46 | 1016.6 |
| 20260830201319 | 94 | 109 | 8.7 | 11.3 | 0.00 | 0.00 | 0.00 | 45 | 1016.4 |
| 20260830200814 | 93 | 196 | 3.5 | 6.1 | 0.00 | 0.00 | 0.00 | 47 | 1016.5 |
| 20260830200314 | 94 | 104 | 5.2 | 7.8 | 0.00 | 0.00 | 0.00 | 47 | 1016.7 |
| 20260830195809 | 93 | 216 | 1.7 | 2.6 | 0.00 | 0.00 | 0.00 | 50 | 1016.7 |
| 20260830195309 | 93 | 189 | 7.0 | 7.8 | 0.00 | 0.00 | 0.00 | 48 | 1016.8 |
| 20260830194807 | 94 | 126 | 6.1 | 8.7 | 0.00 | 0.00 | 0.00 | 48 | 1016.7 |
| 20260830194306 | 93 | 176 | 6.1 | 7.8 | 0.00 | 0.00 | 0.00 | 49 | 1016.9 |
| 20260830193801 | 93 | 99 | 3.5 | 6.1 | 0.00 | 0.00 | 0.00 | 50 | 1016.9 |
| 20260830193255 | 93 | 262 | 0.9 | 1.7 | 0.00 | 0.00 | 0.00 | 50 | 1017.1 |
| 20260830192746 | 94 | 223 | 7.8 | 8.7 | 0.00 | 0.00 | 0.00 | 50 | 1017.1 |
| 20260830192246 | 93 | 172 | 3.5 | 5.2 | 0.00 | 0.00 | 0.00 | 51 | 1017.1 |
| 20260830191742 | 93 | 125 | 5.2 | 7.8 | 0.00 | 0.00 | 0.00 | 49 | 1017.4 |
| 20260830191241 | 93 | 115 | 8.7 | 13.0 | 0.00 | 0.00 | 0.00 | 51 | 1017.5 |
| 20260830190737 | 93 | 185 | 3.5 | 3.5 | 0.00 | 0.00 | 0.00 | 52 | 1017.4 |
| 20260830190232 | 93 | 87 | 0.0 | 0.9 | 0.00 | 0.00 | 0.00 | 53 | 1017.6 |
| 20260830185730 | 93 | 143 | 6.1 | 7.0 | 0.00 | 0.00 | 0.00 | 49 | 1017.6 |
| 20260830185226 | 93 | 159 | 7.0 | 9.6 | 0.00 | 0.00 | 0.00 | 50 | 1017.6 |
| 20260830184725 | 92 | 117 | 5.2 | 7.0 | 0.00 | 0.00 | 0.00 | 53 | 1017.7 |
| 20260830184225 | 91 | 218 | 0.0 | 0.9 | 0.00 | 0.00 | 0.00 | 54 | 1017.7 |
| 20260830183721 | 92 | 133 | 7.0 | 8.7 | 0.00 | 0.00 | 0.00 | 54 | 1017.9 |
| 20260830183215 | 91 | 116 | 1.7 | 2.6 | 0.00 | 0.00 | 0.00 | 54 | 1018.2 |
| 20260830182710 | 91 | 94 | 0.0 | 0.9 | 0.00 | 0.00 | 0.00 | 53 | 1017.9 |
| 20260830182206 | 92 | 87 | 4.3 | 5.2 | 0.00 | 0.00 | 0.00 | 53 | 1017.8 |
| 20260830181702 | 91 | 108 | 2.6 | 3.5 | 0.00 | 0.00 | 0.00 | 55 | 1018.2 |
| 20260830181156 | 91 | 149 | 3.5 | 5.2 | 0.00 | 0.00 | 0.00 | 55 | 1018.3 |
| 20260830180655 | 90 | 110 | 5.2 | 6.1 | 0.00 | 0.00 | 0.00 | 58 | 1018.5 |
| 20260830180151 | 90 | 203 | 7.0 | 8.7 | 0.00 | 0.00 | 0.00 | 57 | 1018.7 |
| 20260830175649 | 90 | 117 | 7.8 | 11.3 | 0.00 | 0.00 | 0.00 | 57 | 1018.5 |
| 20260830175145 | 89 | 208 | 1.7 | 1.7 | 0.00 | 0.00 | 0.00 | 59 | 1018.9 |
| 20260830174640 | 90 | 130 | 4.3 | 5.2 | 0.00 | 0.00 | 0.00 | 58 | 1019.0 |
| 20260830174136 | 89 | 176 | 8.7 | 9.6 | 0.00 | 0.00 | 0.00 | 58 | 1019.2 |
| 20260830173630 | 89 | 134 | 2.6 | 5.2 | 0.00 | 0.00 | 0.00 | 59 | 1019.1 |
| 20260830173125 | 89 | 180 | 6.1 | 8.7 | 0.00 | 0.00 | 0.00 | 59 | 1019.3 |
| 20260830172622 | 89 | 163 | 1.7 | 2.6 | 0.00 | 0.00 | 0.00 | 59 | 1019.0 |
| 20260830172119 | 90 | 123 | 5.2 | 7.0 | 0.00 | 0.00 | 0.00 | 58 | 1019.3 |
| 20260830171613 | 89 | 218 | 4.3 | 6.1 | 0.00 | 0.00 | 0.00 | 60 | 1019.2 |
| 20260830171113 | 89 | 115 | 3.5 | 5.2 | 0.00 | 0.00 | 0.00 | 62 | 1019.4 |
| 20260830170608 | 88 | 198 | 3.5 | 3.5 | 0.00 | 0.00 | 0.00 | 63 | 1019.2 |
| 20260830170107 | 89 | 151 | 4.3 | 5.2 | 0.00 | 0.00 | 0.00 | 62 | 1019.4 |
| 20260830165602 | 88 | 159 | 2.6 | 2.6 | 0.00 | 0.00 | 0.00 | 66 | 1019.6 |
| 20260830165057 | 87 | 159 | 6.1 | 7.0 | 0.00 | 0.00 | 0.00 | 66 | 1019.6 |
| 20260830164554 | 87 | 192 | 6.1 | 7.0 | 0.00 | 0.00 | 0.00 | 66 | 1019.5 |
| 20260830164050 | 87 | 209 | 4.3 | 5.2 | 0.00 | 0.00 | 0.00 | 65 | 1019.6 |
| 20260830163541 | 87 | 159 | 7.8 | 9.6 | 0.00 | 0.00 | 0.00 | 65 | 1019.6 |
| 20260830163040 | 87 | 172 | 6.1 | 7.0 | 0.00 | 0.00 | 0.00 | 65 | 1019.7 |
| 20260830162536 | 87 | 200 | 4.3 | 6.1 | 0.00 | 0.00 | 0.00 | 67 | 1019.5 |
| 20260830162031 | 86 | 73 | 1.7 | 1.7 | 0.00 | 0.00 | 0.00 | 67 | 1019.5 |
| 20260830161526 | 87 | 87 | 3.5 | 5.2 | 0.00 | 0.00 | 0.00 | 69 | 1019.8 |
| 20260830161026 | 86 | 92 | 3.5 | 3.5 | 0.00 | 0.00 | 0.00 | 68 | 1019.6 |
| 20260830160522 | 86 | 117 | 5.2 | 7.0 | 0.00 | 0.00 | 0.00 | 68 | 1019.6 |
| 20260830160017 | 87 | 315 | 0.9 | 0.9 | 0.00 | 0.00 | 0.00 | 68 | 1019.6 |
| 20260830155513 | 86 | 192 | 7.0 | 8.7 | 0.00 | 0.00 | 0.00 | 68 | 1019.8 |
| 20260830155009 | 85 | 143 | 6.1 | 8.7 | 0.00 | 0.00 | 0.00 | 69 | 1019.4 |
| 20260830154504 | 86 | 201 | 2.6 | 3.5 | 0.00 | 0.00 | 0.00 | 69 | 1019.5 |
| 20260830154000 | 85 | 194 | 3.5 | 5.2 | 0.00 | 0.00 | 0.00 | 70 | 1019.5 |
| 20260830153455 | 85 | 134 | 4.3 | 6.1 | 0.00 | 0.00 | 0.00 | 70 | 1019.5 |
| 20260830152954 | 85 | 159 | 5.2 | 7.0 | 0.00 | 0.00 | 0.00 | 71 | 1019.6 |
| 20260830152450 | 85 | 209 | 2.6 | 2.6 | 0.00 | 0.00 | 0.00 | 71 | 1019.3 |
| 20260830151949 | 84 | 170 | 5.2 | 6.1 | 0.00 | 0.00 | 0.00 | 72 | 1019.1 |
| 20260830151443 | 84 | 165 | 3.5 | 5.2 | 0.00 | 0.00 | 0.00 | 74 | 1019.4 |
| 20260830150938 | 84 | 148 | 2.6 | 2.6 | 0.00 | 0.00 | 0.00 | 74 | 1019.3 |
| 20260830150438 | 84 | 159 | 6.1 | 7.0 | 0.00 | 0.00 | 0.00 | 74 | 1019.4 |
| 20260830145937 | 83 | 219 | 3.5 | 5.2 | 0.00 | 0.00 | 0.00 | 76 | 1019.4 |
| 20260830145432 | 83 | 229 | 2.6 | 2.6 | 0.00 | 0.00 | 0.00 | 77 | 1019.1 |
| 20260830144928 | 83 | 134 | 7.8 | 8.7 | 0.00 | 0.00 | 0.00 | 77 | 1019.4 |
| 20260830144424 | 82 | 220 | 4.3 | 7.0 | 0.00 | 0.00 | 0.00 | 78 | 1019.4 |
| 20260830143919 | 82 | 182 | 8.7 | 8.7 | 0.00 | 0.00 | 0.00 | 79 | 1019.3 |
| 20260830143414 | 81 | 231 | 4.3 | 5.2 | 0.00 | 0.00 | 0.00 | 80 | 1019.5 |
| 20260830142913 | 81 | 187 | 6.1 | 7.0 | 0.00 | 0.00 | 0.00 | 81 | 1019.4 |
| 20260830142409 | 81 | 205 | 7.0 | 8.7 | 0.00 | 0.00 | 0.00 | 80 | 1019.5 |
| 20260830141903 | 81 | 205 | 5.2 | 6.1 | 0.00 | 0.00 | 0.00 | 80 | 1019.4 |
| 20260830141359 | 81 | 183 | 7.8 | 9.6 | 0.00 | 0.00 | 0.00 | 80 | 1019.5 |
| 20260830140854 | 81 | 199 | 4.3 | 5.2 | 0.00 | 0.00 | 0.00 | 81 | 1019.3 |
| 20260830140349 | 80 | 158 | 3.5 | 3.5 | 0.00 | 0.00 | 0.00 | 82 | 1019.2 |
| 20260830135848 | 80 | 228 | 1.7 | 3.5 | 0.00 | 0.00 | 0.00 | 83 | 1019.0 |
| 20260830135344 | 80 | 185 | 5.2 | 6.1 | 0.00 | 0.00 | 0.00 | 83 | 1019.3 |
| 20260830134839 | 79 | 192 | 10.4 | 13.9 | 0.00 | 0.00 | 0.00 | 83 | 1019.2 |
| 20260830134334 | 79 | 184 | 6.1 | 7.8 | 0.00 | 0.00 | 0.00 | 85 | 1019.3 |
| 20260830133830 | 79 | 165 | 3.5 | 5.2 | 0.00 | 0.00 | 0.00 | 86 | 1019.2 |
| 20260830133325 | 78 | 224 | 4.3 | 6.1 | 0.00 | 0.00 | 0.00 | 86 | 1019.0 |
| 20260830132820 | 78 | 215 | 3.5 | 5.2 | 0.00 | 0.00 | 0.00 | 87 | 1019.0 |
| 20260830132316 | 78 | 197 | 5.2 | 6.1 | 0.00 | 0.00 | 0.00 | 87 | 1019.1 |
| 20260830131815 | 78 | 182 | 2.6 | 5.2 | 0.00 | 0.00 | 0.00 | 87 | 1019.1 |
| 20260830131310 | 78 | 207 | 5.2 | 6.1 | 0.00 | 0.00 | 0.00 | 87 | 1018.9 |
| 20260830130805 | 78 | 190 | 2.6 | 3.5 | 0.00 | 0.00 | 0.00 | 87 | 1018.7 |
| 20260830130300 | 77 | 183 | 3.5 | 5.2 | 0.00 | 0.00 | 0.00 | 88 | 1018.9 |
| 20260830125759 | 77 | 218 | 5.2 | 6.1 | 0.00 | 0.00 | 0.00 | 88 | 1018.9 |
| 20260830125255 | 77 | 250 | 3.5 | 3.5 | 0.00 | 0.00 | 0.00 | 88 | 1018.6 |
| 20260830124752 | 77 | 211 | 4.3 | 5.2 | 0.00 | 0.00 | 0.00 | 88 | 1018.7 |
| 20260830124247 | 77 | 179 | 2.6 | 2.6 | 0.00 | 0.00 | 0.00 | 89 | 1018.7 |
| 20260830123744 | 77 | 205 | 1.7 | 3.5 | 0.00 | 0.00 | 0.00 | 89 | 1018.6 |
| 20260830123240 | 77 | 194 | 1.7 | 2.6 | 0.00 | 0.00 | 0.00 | 89 | 1018.5 |
| 20260830122737 | 77 | 186 | 2.6 | 2.6 | 0.00 | 0.00 | 0.00 | 89 | 1018.6 |
| 20260830122232 | 77 | 202 | 2.6 | 3.5 | 0.00 | 0.00 | 0.00 | 89 | 1018.5 |
| 20260830121728 | 76 | 198 | 2.6 | 2.6 | 0.00 | 0.00 | 0.00 | 89 | 1018.7 |
| 20260830121227 | 76 | 204 | 4.3 | 5.2 | 0.00 | 0.00 | 0.00 | 89 | 1018.5 |
| 20260830120722 | 77 | 186 | 1.7 | 2.6 | 0.00 | 0.00 | 0.00 | 89 | 1018.4 |
| 20260830120218 | 77 | 181 | 2.6 | 2.6 | 0.00 | 0.00 | 0.00 | 89 | 1018.4 |
| 20260830115715 | 77 | 236 | 3.5 | 3.5 | 0.00 | 0.00 | 0.00 | 89 | 1018.4 |
| 20260830115210 | 77 | 191 | 1.7 | 2.6 | 0.00 | 0.00 | 0.00 | 88 | 1017.9 |
| 20260830114706 | 77 | 194 | 2.6 | 2.6 | 0.00 | 0.00 | 0.00 | 88 | 1018.1 |
| 20260830114206 | 77 | 198 | 3.5 | 5.2 | 0.00 | 0.00 | 0.00 | 88 | 1018.1 |
| 20260830113702 | 77 | 206 | 1.7 | 2.6 | 0.00 | 0.00 | 0.00 | 88 | 1018.2 |
| 20260830113156 | 77 | 224 | 5.2 | 6.1 | 0.00 | 0.00 | 0.00 | 87 | 1018.2 |
| 20260830112653 | 77 | 199 | 0.9 | 1.7 | 0.00 | 0.00 | 0.00 | 87 | 1018.2 |
| 20260830112148 | 77 | 194 | 1.7 | 1.7 | 0.00 | 0.00 | 0.00 | 87 | 1018.2 |
| 20260830111644 | 77 | 204 | 5.2 | 6.1 | 0.00 | 0.00 | 0.00 | 86 | 1018.1 |
| 20260830111140 | 77 | 186 | 5.2 | 6.1 | 0.00 | 0.00 | 0.00 | 86 | 1018.2 |
| 20260830110634 | 77 | 207 | 1.7 | 3.5 | 0.00 | 0.00 | 0.00 | 85 | 1018.2 |